IRIDIUM 151

Last updated on Tue Sep 22 2026 00:03:21 GMT+0000 (Coordinated Universal Time)

1 43074U 17083E 26264.36869368 .00000009 00000+0 -38194-5 0 9995 2 43074 86.3911 281.8469 0002079 91.2776 268.8658 14.34217667457927
UTC large
Height (km)
Speed (km/s)
/
Latitude / Longitude
Inclination (degrees)
Orbital Period (minutes)
Azimuth
Elevation
Range (km)
Doppler Factor

Next 0 passes for location: London (51.5072 / 0.1276)

No passes found over London.
IRIDIUM 151